Погода в Ветлуге

Хотите узнать прогноз погоды в Ветлуге? Тогда Вам сюда: Погода в Ветлуге

Поиск расширенной информации на нашем сайте:

Полезная информация:

Новости сайта



02.01.2020
Опубликован Долгосрочный прогноз погоды по городам России и ближнего зарубежья на январь 2020 года.
Карты: Прогноз на январь и февраль 2020 года, Сравнение прогнозируемой аномалии приземной температуры воздуха на январь 2020 года по разным моделям.




Погода в Ветлуге - сегодня

Время (UTC), дата Ветер
(°,м/с) 
Видим.   Явления Облачность Т
(°С)
Тd
(°С)
f(%) Тe
(°С)
Pmin
(гПа)
dP
(гПа)
Po
(мм)
O2
(г/м3)
Тmin Tmax R s Состояние
почвы
12 29.11.20 090 (В) 2-4{05}  4000 м  слаб. снег  10/10 600 м 
[Sc]
-3.5 -4.6 92 -5  1041.7  0.4  768  314           
15 29.11.20 110 (В) 2-4{04}  20000 м  {снег}  10/8 600 м средняя 
[Sc|Ac As]
-2.7 -3.7 93 -4  1042.3  0.6  768  313    -2.7     
18 29.11.20 110 (В) 2-5{05}  20000 м  {снег}  10/10 600 м 
[Sc diur, vesp|Ac As]
-2.2 -2.8 96 -3  1042.7  0.4  769  313           
21 29.11.20 110 (В) 3-4{06}  20000 м    10/10 600 м 
[Sc diur, vesp]
-2.2 -2.8 96 -4  1042.8  0.1  769  313           
00 30.11.20 110 (В) 2-5{05}  20000 м    10/10 600 м 
[Sc diur, vesp]
-1.5 -2 96 -2  1042.5  -0.2  769  312           
03 30.11.20 120 (ЮВ) 2-4{05}  20000 м    10/10 600 м 
[Sc diur, vesp]
-0.7 -1.4 95 -2  1042.1  -0.4  768  311  -2.7         
06 30.11.20 120 (ЮВ) 2-5{05}  20000 м  слаб. снег  10/10 300 м 
[Frnb|Ns]
-0.2 -1.1 94 -1  1041.9  -0.1  768  310           
09 30.11.20 140 (ЮВ) 2-6{06}  20000 м  {снег}  6/0 верхняя 
[Ci fib]
+0 -3.4 78 -1  1041.3  -0.6  768  310           
12 30.11.20 120 (ЮВ) 3-8{08}  20000 м  {снег}  8/3 600 м кучево-дожд., средняя, верхняя 
[Cb calv|As trans|Ci fib]
-2 -4.6 82 -4  1040.5  -0.9  767  312           
15 30.11.20 150 (ЮВ) 3-5{09}  20000 м    10/8 600 м кучево-дожд., средняя 
[Cb calv|Ac As]
-3.4 -5.9 83 -6  1040.4  -0.2  767  314    +0  0.0     
18 30.11.20 140 (ЮВ) 2-4{07}  20000 м    6/3 1000 м верхняя 
[Sc|Ci fib]
-6.8 -8.8 86 -8  1040.4  -0.2  767  318           
21 30.11.20 140 (ЮВ) 2-3{05}  20000 м    3/0 верхняя 
[Ci fib]
-7.5 -9.7 84 -9  1040.3  -0.2  767  319           
00 01.12.20 160 (Ю) 3-5{06}  20000 м    4/3 1000 м верхняя 
[Sc|Ci fib]
-7.1 -10 80 -10  1040.1  -0.1  767  318           
03 01.12.20 160 (Ю) 3-7{07}  20000 м    4/0 верхняя 
[Ci fib]
-7.6 -11.1 76 -10  1040.5  0.3  767  319  -7.6      15  равномерный
сухой снег
100% 
06 01.12.20 160 (Ю) 3-6{07}  20000 м    3/0 верхняя 
[Ci fib]
-7.8 -11.4 75 -11  1041  0.5  767  319  -8.1         
09 01.12.20 160 (Ю) 3-6{08}  20000 м    8/0 верхняя 
[Cc]
-6.1 -10.5 71 -9  1040.8  -0.1  767  317           
12 01.12.20 160 (Ю) 3-6{07}  20000 м    8/1 600 м средняя 
[Sc diur, vesp|Ac As]
-5.8 -10.1 72 -8  1040.4  -0.4  767  317           
15 01.12.20 160 (Ю) 3-7{08}  20000 м    8/3 600 м средняя 
[Sc diur, vesp|Ac As]
-6.7 -10.4 75 -9  1040  -0.4  767  318    -5.4       
21 01.12.20 160 (Ю) 2-4{06}  20000 м    10/0 средняя, верхняя 
[Ac As|Ci fib]
-8.6 -11 83 -10  1040.9    767  320      200     
00 02.12.20 170 (Ю) 2-6{06}  20000 м    10/0 средняя, верхняя 
[Ac As|Ci fib]
-8.3 -11.1 80 -10  1040.6  -0.2  767  320           
03 02.12.20 170 (Ю) 2-4{06}  20000 м  слаб. снег  10/4 600 м средняя 
[Sc|Ac As]
-8 -10.7 81 -10  1040.2  -0.4  767  319  -8.8    0.0  15  равномерный
сухой снег
100% 
06 02.12.20 170 (Ю) 2-5{05}  20000 м  {снег}  10/4 600 м средняя 
[Sc diur, vesp|Ac As]
-7.9 -10.6 81 -9  1040.9  0.7  767  319           
09 02.12.20 170 (Ю) 1-2{05}  20000 м    10/4 600 м средняя 
[Sc diur, vesp|Ac As]
-7.5 -10.5 79 -7  1041  0.1  767  319           
12 02.12.20 170 (Ю) 2-3{04}  20000 м    10/0 средняя 
[Ac As]
-7.8 -10.5 81 -9  1041.1  0.1  767  319           
15 02.12.20 180 (Ю) 2-4{04}  20000 м    10/8 600 м средняя 
[Sc diur, vesp|Ac As]
-8.3 -10.6 83 -10  1041  -0.1  767  320    -7.3  0.0     
Время (UTC), дата Ветер
(°,м/с) 
Видим.   Явления Облачность Т
(°С)
Тd
(°С)
f(%) Тe
(°С)
Pmin
(гПа)
dP
(гПа)
Po
(мм)
O2
(г/м3)
Тmin Tmax R s Состояние
почвы

Для получения пояснительной информации подведите курсор к названию столбца.

ПОГОДА в Ветлуге - архив

Всё, что Вы хотите узнать о погоде в Ветлуге - удобно и подробно!

Выберите нужную дату (начиная с 1 января 2019* года) и нажмите кнопку "Найти".
Будут отображены архивные сводки погоды по пункту Ветлуга, начиная с указанной даты.


Отображать данные в формате CSV (для использования в таблицах Excel)


Внимание! Наш архив погоды предназначен исключительно для личного некоммерческого использования в познавательных целях. Если Вам необходимы официальные справки о состоянии погоды (для производственных, юридических, коммерческих и т.п. целей), обращайтесь в органы Росгидромета.

*Примечание: данная дата относится к архиву по метеостанциям СССР (Россия, СНГ, Балтия).
Архив по метеостанциям Зарубежной Европы и Азии (кроме Китая) хранится 10 дней, по другим регионам земного шара (Китай, Африка, Америка, Австралия, Океания) - 1 день.

Ветлуга - район местоположения метеостанции


Название, широта, долгота, высота метеостанции:
Ветлуга 57.9°ш. 45.8°д. 136 м над ур. моря [Российская Федерация]

Дополнительная информация

В oтличие oт бoльшинства пoгoдных сайтoв мы публикуем пoдрoбную метеoинфoрмацию в детальнoм прoфессиoнальнoм фoрмате.

Характеристики температуры и влажнoсти вoздуха измеряются на высoте 2 м в тени вдали oт зданий и деревьев.
Скoрoсть ветра измеряется на высoте 10 м (на урoвне рoста челoвека скoрoсть ветра ниже в 1.5-2 раза). Если метеoстанция нахoдится в гoрoде или в лесу, тo скoрoсть ветра занижена на 2-4 м/с пo сравнению с oткрытым местoм. Скoрoсть ветра над акватoриями крупных рек и oзёр, а также на вершинах хoлмoв на 2-5 м/с выше, чем в oбычных услoвиях.
Атмoсфернoе давление в разных тoчках местнoсти мoжет значительнo oтличаться oт давления на метеoстанции, в зависимoсти oт услoвий рельефа (при пoдъёме на 10 м давление пoнижается примернo на 1 мм рт.ст.).